Tracking 18673 objects as of 25-June-2017
HD Live streaming from Space Station
objects crossing your sky now

COSMOS 1546

Track COSMOS 1546 now!
COSMOS 1546 is classified as:


NORAD ID: 14867
Int'l Code: 1984-031A
Perigee: 35,688.6 km
Apogee: 35,897.1 km
Inclination: 14.1 °
Period: 1,436.1 minutes
Semi major axis: 42163 km
RCS: 0.14 m2 (medium)
Launch date: March 29, 1984
Source: Commonwealth of Independent States (former USSR) (CIS)
Launch site: TYURATAM MISSILE AND SPACE COMPLEX (TTMTR)
Your satellite tracking list
Your tracking list is empty





NASA's NSSDC Master Catalog

Two Line Element Set (TLE):
1 14867U 84031A   17174.98174303 -.00000182 +00000-0 +00000-0 0  9999
2 14867 014.1125 341.2198 0024726 291.1601 074.7167 01.00274986085036
Source of the keplerian elements: AFSPC